Location: ????????
(41.2031°N, 22.5756°E)
Time: 15:29:23
(UTC+00:00)

USA 281 - Pass Details

Date: 01 December 2020
Orbit: 1074 x 1084 km, 106.0° (Epoch: 08 January)

Event Time Altitude Azimuth Distance (km) Brightness Sun altitude
Rises 15:34:02 0° 104° (ESE) 3,876 5.6 -6.3°
Reaches altitude 10° 15:37:22 10° 87° (E) 2,922 4.9 -6.9°
Maximum altitude 15:41:37 19° 47° (NE) 2,349 4.5 -7.6°
Drops below altitude 10° 15:45:51 10° 6° (N) 2,925 5.2 -8.4°
Sets 15:49:10 0° 349° (N) 3,883 6.0 -9.0°
